Home   Weather   Erftstadt   Past weeks

Flag for Germany Past Weather in Erftstadt, North Rhine-Westphalia, Germany — Yesterday and Last 2 Weeks

48 °F

Drizzle. Fog.

Feels Like: 46 °F
Forecast: 42 / 55 °F
Wind: 5 mph from Northwest

Location: Noervenich

Current Time: Oct 25, 2016 at 2:08:52 PM

Latest Report: Oct 25, 2016 at 1:20 PM

Visibility: 2 mi

Pressure: 30.21 "Hg

Humidity: 100%

Dew Point: 48 °F

Location of ErftstadtLocation

Past Weather in Erftstadt — Graph


Erftstadt Temperature Yesterday

Maximum temperature yesterday: 52 °F (at 2:20 PM)
Minimum temperature yesterday: 45 °F (at 12:20 AM)
Average temperature yesterday: 49 °F

High & Low Weather Summary for the Past Weeks

High68 °F (Oct 16, 3:20 PM)100% (Oct 11, 6:20 AM)30.24 "Hg (Oct 11, 6:20 AM)
Low34 °F (Oct 23, 2:20 AM)52% (Oct 18, 1:20 PM)29.65 "Hg (Oct 15, 2:20 AM)
Average48 °F86%29.99 "Hg
* Reported Oct 10 12:20 PM — Oct 25 12:49 PM, Erftstadt, Weather by CustomWeather, © 2016

Note: Actual official high and low records may vary slightly from our data, if they occured in-between our weather recording intervals... More about our weather records


Erftstadt Weather History for the Previous 24 Hours

Scroll right to see more
Time TempWeatherWind HumidityBarometerVisibility
12:49 PM
Tue, Oct 25
48 °FDrizzle. Fog.5 mph100%30.21 "Hg1 mi
12:20 PM50 °FDrizzle. Fog.5 mph94%30.21 "Hg1 mi
11:20 AM50 °FFog.5 mph94%30.18 "Hg2 mi
10:20 AM50 °FFog.5 mph94%30.15 "Hg1 mi
9:20 AM50 °FDrizzle. Fog.8 mph94%30.15 "Hg2 mi
8:20 AM50 °FDrizzle. Fog.7 mph94%30.12 "Hg1 mi
7:50 AM50 °FDrizzle. Fog.8 mph94%30.12 "Hg1 mi
7:20 AM50 °FDrizzle. Fog.9 mph94%30.09 "Hg2 mi
6:20 AM50 °FFog.8 mph100%30.07 "Hg3 mi
5:20 AM52 °FDrizzle. Fog.6 mph94%30.07 "Hg3 mi
4:20 AM52 °FFog.6 mph100%30.04 "Hg2 mi
3:20 AM52 °FFog.7 mph100%30.04 "Hg1 mi
2:20 AM52 °FFog.5 mph100%30.01 "Hg2 mi
1:20 AM52 °FFog.No wind94%29.98 "Hg2 mi
12:20 AM52 °FLight rain. Fog.1 mph100%29.98 "Hg2 mi
11:20 PM
Mon, Oct 24
52 °FLight rain. Fog.3 mph100%29.98 "Hg3 mi
10:20 PM52 °FRain. Fog.2 mph94%29.95 "Hg2 mi
9:20 PM52 °FLight rain. Fog.No wind94%29.95 "Hg2 mi
8:20 PM52 °FLight rain. Fog.3 mph94%29.92 "Hg2 mi
7:48 PM52 °FRain. Fog.3 mph94%29.95 "Hg1 mi
7:20 PM52 °FDrizzle. Fog.3 mph94%29.95 "Hg1 mi
6:48 PM52 °FDrizzle. Fog.1 mph94%29.92 "Hg1 mi
6:20 PM52 °FDrizzle. Fog.1 mph94%29.92 "Hg1 mi
4:20 PM52 °FRain. Fog.2 mph94%29.89 "Hg2 mi
3:58 PM52 °FRain. Fog.2 mph94%29.89 "Hg2 mi
3:20 PM52 °FLight rain. Broken clouds.3 mph94%29.86 "Hg4 mi
2:20 PM52 °FLight rain. Fog.5 mph94%29.86 "Hg3 mi
Weather by CustomWeather, © 2016

See weather overviewHow to use our weather pages